Location: Beaurecueil
(43.5122°N, 5.5450°E)
Time: 07:59:21
(UTC+00:00)

Cosmos 1939 Rocket - Pass Details

Date: 19 January 2021
Orbit: 531 x 585 km, 97.4° (Epoch: 04 March)

Event Time Altitude Azimuth Distance (km) Brightness Sun altitude
Rises 05:19:15 0° 33° (NNE) 2,734 6.7 -19.0°
Reaches altitude 10° 05:22:27 10° 61° (ENE) 1,821 6.2 -18.4°
Maximum altitude 05:24:21 13° 90° (E) 1,618 6.3 -18.1°
Drops below altitude 10° 05:26:14 10° 119° (ESE) 1,800 6.6 -17.7°
Sets 05:29:21 0° 147° (SSE) 2,675 7.0 -17.2°
